Location: Newark
(45.2500°N, 7.5833°E)
Time: 15:19:25
(UTC+00:00)

Tiros 1 despin weight - Pass Details

Date: 26 January 2020
Orbit: 594 x 642 km, 48.2° (Epoch: 24 February)

Event Time Altitude Azimuth Distance (km) Brightness Sun altitude
Rises 16:40:28 0° 287° (WNW) 2,918 ? -2.9°
Reaches altitude 10° 16:43:04 10° 275° (W) 2,015 ? -3.3°
Maximum altitude 16:46:53 25° 219° (SW) 1,270 ? -3.9°
Drops below altitude 10° 16:50:43 10° 164° (SSE) 2,021 ? -4.6°
Sets 16:53:20 0° 152° (SSE) 2,929 ? -5.0°
